Zurück zum Katalog

SL-12 R/B

AUX MOTOR

AktivHEO
NORAD 37143·ROCKET BODY·🇷🇺 Russia

Gestartet Sep 2, 2010 von Baikonur Cosmodrome

Loading…

Nächste Überflüge (nächste 24 Stunden)

TLE

AktuellSource: Space-Track

Epoche: Sep 14, 2026, 11:47 UTC

1 37143U 10041G   26257.49151204  .00042333  00000-0  21969-2 0  9996
2 37143  64.4360  64.8143 3202229 267.3931  56.2768  8.95287873290046

Verfolge SL-12 R/B in Echtzeit mit AllMySat

Download on the App Store